Weather History for KBIV - April, 2014

Change the Weather History Date:

Wednesday, April 23, 2014

  Actual Average Record
Temperature  
Mean Temperature 44 °F 51 °F  
Max Temperature 53 °F 61 °F 87 °F (1985)
Min Temperature 34 °F 41 °F 19 °F (1986)
Degree Days  
Heating Degree Days 21 14  
Month to date heating degree days 421 416  
Since 1 July heating degree days 6705 5790  
Cooling Degree Days 0 0  
Month to date cooling degree days 0 0  
Year to date cooling degree days 0 0  
Moisture  
Dew Point 26 °F    
Average Humidity 57    
Maximum Humidity 75    
Minimum Humidity 38    
Precipitation  
Precipitation 0.00 in 0.11 in 1.73 in (1999)
Month to date precipitation 1.53 2.28  
Year to date precipitation 6.63 8.44  
Sea Level Pressure  
Sea Level Pressure 30.14 in    
Wind  
Wind Speed 7 mph (NNW)    
Max Wind Speed 16 mph    
Max Gust Speed 24 mph    
Visibility 10 miles    
Events      
T = Trace of Precipitation, MM = Missing Value Source: NWS Daily Summary

Daily Weather History Graph

Daily Weather History Graph

Search for Another Location

Airport or City:

Trip Planner

Search our weather history database for the weather conditions in past years. The results will help you decide how hot, cold, wet, or windy it might be!

Date:

Astronomy

Apr. 23, 2014 Rise Set
Actual Time 6:50 AM EDT 8:35 PM EDT
Civil Twilight 6:20 AM EDT 9:05 PM EDT
Nautical Twilight 5:43 AM EDT 9:42 PM EDT
Astronomical Twilight 5:04 AM EDT 10:22 PM EDT
Moon 3:30 AM EDT (4/23) 2:35 PM EDT (4/23)
Length of Visible Light 14h 45m
Length of Day
13h 45m
Waning Crescent, 35% of the Moon is Illuminated
Apr 23
Waning Crescent
Apr 29
New
May 6
First Quarter
May 14
Full
May 21
Last Quarter

Hourly Weather History & Observations

Time (EDT) Temp. Windchill Dew Point Humidity Pressure Visibility Wind Dir Wind Speed Gust Speed Precip Events Conditions
12:53 AM 39.0 °F 33.4 °F 27.0 °F 62% 30.07 in 10.0 mi NNW 8.1 mph - N/A   Clear
1:53 AM 37.9 °F 32.1 °F 26.1 °F 62% 30.07 in 10.0 mi North 8.1 mph 18.4 mph N/A   Clear
2:53 AM 36.0 °F 31.1 °F 26.1 °F 67% 30.08 in 10.0 mi NNW 5.8 mph - N/A   Clear
4:53 AM 35.1 °F 31.0 °F 26.1 °F 70% 30.11 in 10.0 mi North 4.6 mph - N/A   Clear
5:53 AM 34.0 °F 29.8 °F 26.1 °F 73% 30.13 in 10.0 mi North 4.6 mph - N/A   Clear
6:53 AM 34.0 °F 29.8 °F 26.1 °F 73% 30.14 in 10.0 mi Variable 4.6 mph - N/A   Clear
7:53 AM 36.0 °F 32.1 °F 27.0 °F 70% 30.16 in 10.0 mi Variable 4.6 mph - N/A   Clear
8:53 AM 39.0 °F 32.3 °F 28.0 °F 65% 30.17 in 10.0 mi NNE 10.4 mph - N/A   Clear
9:53 AM 42.1 °F 37.1 °F 28.0 °F 58% 30.18 in 10.0 mi North 8.1 mph - N/A   Clear
10:53 AM 46.0 °F 41.9 °F 27.0 °F 47% 30.17 in 10.0 mi ENE 8.1 mph - N/A   Clear
11:53 AM 48.0 °F - 24.1 °F 39% 30.17 in 10.0 mi NE 6.9 mph - N/A   Clear
12:53 PM 52.0 °F - 27.0 °F 38% 30.17 in 10.0 mi Variable 5.8 mph - N/A   Clear
1:53 PM 48.9 °F - 30.0 °F 48% 30.17 in 10.0 mi WNW 11.5 mph - N/A   Clear
2:53 PM 46.9 °F - 28.9 °F 50% 30.17 in 10.0 mi WNW 13.8 mph 19.6 mph N/A   Clear
3:53 PM 46.9 °F - 28.0 °F 48% 30.18 in 10.0 mi WNW 12.7 mph - N/A   Clear
4:53 PM 46.9 °F - 27.0 °F 46% 30.15 in 10.0 mi NW 9.2 mph - N/A   Clear
5:53 PM 46.9 °F - 25.0 °F 42% 30.13 in 10.0 mi WNW 9.2 mph - N/A   Clear
6:53 PM 48.0 °F - 26.1 °F 42% 30.14 in 10.0 mi WNW 5.8 mph - N/A   Clear
7:53 PM 46.0 °F 43.9 °F 23.0 °F 40% 30.13 in 10.0 mi WNW 4.6 mph - N/A   Clear
8:53 PM 45.0 °F 42.6 °F 23.0 °F 42% 30.14 in 10.0 mi NW 4.6 mph - N/A   Clear
9:53 PM 45.0 °F - 24.1 °F 44% 30.14 in 10.0 mi Calm Calm - N/A   Clear
10:53 PM 46.0 °F - 23.0 °F 40% 30.12 in 10.0 mi Calm Calm - N/A   Partly Cloudy
11:53 PM 45.0 °F 43.5 °F 26.1 °F 48% 30.10 in 10.0 mi East 3.5 mph - N/A   Mostly Cloudy